Location: Beneden-Haastrecht
(52.0012°N, 4.7557°E)
Time: 03:37:46
(UTC+00:00)

Cosmos 2278 Rocket - Pass Details

Date: 24 October 2020
Orbit: 840 x 846 km, 71.0° (Epoch: 23 November)

Event Time Altitude Azimuth Distance (km) Brightness Sun altitude
Rises 19:30:00 0° 320° (NW) 3,410 6.2 -28.5°
Reaches altitude 10° 19:34:13 10° 350° (N) 2,475 4.9 -29.1°
Maximum altitude 19:36:29 12° 13° (NNE) 2,313 4.5 -29.5°
Enters shadow 19:36:59 12° 19° (NNE) 2,322 4.5 -29.5°
